Mount Shasta, CA

2:27 AM PDT on May 25, 2018 (GMT -0700)
Mount Shasta

Weather History for KMHS - November, 2012

Change the Weather History Date:

Thursday, November 29, 2012

  Actual Average Record
Temperature  
Mean Temperature 46 °F 37 °F  
Max Temperature 49 °F 47 °F 77 °F (1915)
Min Temperature 42 °F 27 °F 13 °F (2006)
Degree Days  
Heating Degree Days 19 28  
Month to date heating degree days 618 705  
Since 1 July heating degree days 1012 1369  
Cooling Degree Days 0 0  
Month to date cooling degree days 0 0  
Year to date cooling degree days 392 288  
Moisture  
Dew Point 40 °F    
Average Humidity 86    
Maximum Humidity 92    
Minimum Humidity 76    
Precipitation  
Precipitation 3.89 in 0.21 in 3.89 in (2012)
Month to date precipitation 8.46 4.87  
Year to date precipitation 34.13 35.15  
Sea Level Pressure  
Sea Level Pressure 29.79 in    
Wind  
Wind Speed 5 mph (SE)    
Max Wind Speed 10 mph    
Max Gust Speed 36 mph    
Visibility 4 miles    
Events Rain    
T = Trace of Precipitation, MM = Missing Value Source: NWS Daily Summary

Daily Weather History Graph

Daily Weather History Graph

Search for Another Location

Airport or City:

Astronomy

Nov. 29, 2012 Rise Set
Actual Time 7:14 AM PST 4:41 PM PST
Civil Twilight 6:43 AM PST 5:11 PM PST
Nautical Twilight 6:09 AM PST 5:46 PM PST
Astronomical Twilight 5:36 AM PST 6:19 PM PST
Moon 5:48 PM PST (11/29) 8:05 AM PST (11/29)
Length of Visible Light 10h 28m
Length of Day
9h 26m
Full, 99% of the Moon is Illuminated
Nov 29
Full
Dec 6
Last Quarter
Dec 13
New
Dec 19
First Quarter
Dec 28
Full

Hourly Weather History & Observations

Time (PST) Temp. Windchill Dew Point Humidity Pressure Visibility Wind Dir Wind Speed Gust Speed Precip Events Conditions
12:56 AM 44.1 °F 40.8 °F 39.0 °F 82% 29.99 in 10.0 mi ESE 5.8 mph - 0.01 in   Overcast
1:11 AM 44.6 °F 40.7 °F 37.4 °F 76% 29.93 in 10.0 mi ESE 6.9 mph - N/A   Overcast
1:39 AM 44.6 °F 41.4 °F 37.4 °F 76% 29.92 in 10.0 mi Variable 5.8 mph - N/A   Overcast
1:56 AM 44.1 °F 39.5 °F 37.9 °F 79% 29.99 in 10.0 mi East 8.1 mph 20.7 mph N/A   Overcast
2:05 AM 44.6 °F 41.4 °F 37.4 °F 76% 29.93 in 10.0 mi Variable 5.8 mph - N/A   Overcast
2:46 AM 44.6 °F 41.4 °F 37.4 °F 76% 29.92 in 10.0 mi ESE 5.8 mph 23.0 mph N/A   Overcast
2:56 AM 44.1 °F 40.1 °F 37.9 °F 79% 29.97 in 10.0 mi ESE 6.9 mph - N/A   Overcast
3:54 AM 44.6 °F 41.4 °F 37.4 °F 76% 29.89 in 10.0 mi ESE 5.8 mph - 0.00 in   Overcast
3:56 AM 44.1 °F 40.1 °F 37.9 °F 79% 29.94 in 10.0 mi ESE 6.9 mph - 0.00 in   Overcast
4:37 AM 42.8 °F 39.3 °F 37.4 °F 81% 29.86 in 8.0 mi ESE 5.8 mph - 0.01 in Rain Light Rain
4:56 AM 43.0 °F 40.3 °F 39.0 °F 86% 29.92 in 4.0 mi SE 4.6 mph - 0.04 in Rain Rain
5:07 AM 42.8 °F 39.3 °F 39.2 °F 87% 29.85 in 4.0 mi ESE 5.8 mph - 0.02 in Rain Rain
5:17 AM 42.8 °F 39.3 °F 39.2 °F 87% 29.85 in 6.0 mi Variable 5.8 mph - 0.03 in Rain Light Rain
5:25 AM 42.8 °F 41.1 °F 39.2 °F 87% 29.85 in 6.0 mi Variable 3.5 mph - 0.03 in Rain Light Rain
5:48 AM 42.8 °F 39.3 °F 39.2 °F 87% 29.84 in 6.0 mi Variable 5.8 mph - 0.05 in Rain Light Rain
5:56 AM 43.0 °F 40.3 °F 39.0 °F 86% 29.89 in 5.0 mi ESE 4.6 mph - 0.07 in Rain Light Rain
6:32 AM 42.8 °F 38.0 °F 39.2 °F 87% 29.84 in 5.0 mi SE 8.1 mph - 0.03 in Rain Light Rain
6:45 AM 42.8 °F 38.6 °F 39.2 °F 87% 29.82 in 5.0 mi SE 6.9 mph - 0.05 in Rain Light Rain
6:56 AM 43.0 °F 38.2 °F 39.9 °F 89% 29.88 in 4.0 mi SE 8.1 mph - 0.06 in Rain Light Rain
7:25 AM 42.8 °F 38.0 °F 39.2 °F 87% 29.82 in 5.0 mi SE 8.1 mph - 0.04 in Rain Light Rain
7:37 AM 42.8 °F 38.0 °F 39.2 °F 87% 29.82 in 4.0 mi SE 8.1 mph - 0.06 in Rain Light Rain
7:44 AM 42.8 °F 38.0 °F 39.2 °F 87% 29.82 in 3.0 mi SE 8.1 mph - 0.07 in Rain Rain
7:54 AM 42.8 °F 39.3 °F 39.2 °F 87% 29.81 in 2.5 mi SE 5.8 mph - 0.10 in Rain Rain
7:56 AM 43.0 °F 40.3 °F 39.9 °F 89% 29.86 in 3.0 mi Variable 4.6 mph - 0.10 in Rain Rain
8:07 AM 42.8 °F - 39.2 °F 87% 29.82 in 2.5 mi Calm Calm - 0.03 in Rain Rain
8:52 AM 42.8 °F 38.0 °F 39.2 °F 87% 29.83 in 3.0 mi SE 8.1 mph - 0.17 in Rain Rain
8:56 AM 43.0 °F 39.5 °F 39.9 °F 89% 29.88 in 2.5 mi SE 5.8 mph - 0.18 in Rain Rain
9:29 AM 42.8 °F 39.3 °F 39.2 °F 87% 29.80 in 1.5 mi Variable 5.8 mph - 0.11 in Rain Heavy Rain
9:37 AM 42.8 °F 40.1 °F 39.2 °F 87% 29.82 in 1.2 mi Variable 4.6 mph - 0.16 in Rain Heavy Rain
9:44 AM 42.8 °F 41.1 °F 39.2 °F 87% 29.83 in 1.8 mi Variable 3.5 mph - 0.19 in Rain Rain
9:56 AM 43.0 °F 38.8 °F 39.9 °F 89% 29.88 in 2.0 mi SE 6.9 mph - 0.23 in Rain Rain
10:13 AM 42.8 °F 39.3 °F 39.2 °F 87% 29.82 in 2.0 mi ESE 5.8 mph - 0.06 in Rain Rain
10:26 AM 42.8 °F 38.6 °F 39.2 °F 87% 29.82 in 2.0 mi SE 6.9 mph - 0.10 in Rain Rain
10:38 AM 42.8 °F 39.3 °F 39.2 °F 87% 29.82 in 1.5 mi ESE 5.8 mph 21.9 mph 0.15 in Rain Heavy Rain
10:54 AM 42.8 °F 41.1 °F 39.2 °F 87% 29.83 in 2.5 mi Variable 3.5 mph - 0.20 in Rain Rain
10:56 AM 43.0 °F 38.8 °F 39.9 °F 89% 29.88 in 2.5 mi Variable 6.9 mph - 0.20 in Rain Rain
11:06 AM 42.8 °F 40.1 °F 39.2 °F 87% 29.83 in 3.0 mi Variable 4.6 mph - 0.02 in Rain Rain
11:32 AM 42.8 °F 38.0 °F 39.2 °F 87% 29.85 in 3.0 mi SSE 8.1 mph - 0.06 in Rain Light Rain
1:48 PM 42.8 °F 41.1 °F 37.4 °F 81% 29.80 in 1.5 mi Variable 3.5 mph - 0.10 in Rain Heavy Rain
1:56 PM 42.1 °F 39.2 °F 37.9 °F 85% 29.86 in 1.5 mi Variable 4.6 mph - 0.14 in Rain Heavy Rain
2:03 PM 42.8 °F 40.1 °F 37.4 °F 81% 29.79 in 1.2 mi Variable 4.6 mph - 0.05 in Rain Heavy Rain
2:13 PM 42.8 °F 39.3 °F 37.4 °F 81% 29.79 in 1.5 mi ESE 5.8 mph - 0.10 in Rain Heavy Rain
2:34 PM 42.8 °F 39.3 °F 39.2 °F 87% 29.76 in 1.2 mi ESE 5.8 mph - 0.21 in Rain Heavy Rain
2:45 PM 42.8 °F 39.3 °F 39.2 °F 87% 29.78 in 1.5 mi Variable 5.8 mph - 0.28 in Rain Heavy Rain
2:56 PM 43.0 °F 38.8 °F 39.0 °F 86% 29.81 in 1.5 mi ESE 6.9 mph - 0.34 in Rain Heavy Rain
3:37 PM 42.8 °F 41.1 °F 39.2 °F 87% 29.76 in 2.0 mi Variable 3.5 mph - 0.18 in Rain Rain
3:44 PM 42.8 °F 40.1 °F 39.2 °F 87% 29.74 in 1.8 mi ESE 4.6 mph - 0.21 in Rain Rain
3:54 PM 44.6 °F 42.2 °F 39.2 °F 81% 29.75 in 2.0 mi SE 4.6 mph - 0.25 in Rain Rain
3:56 PM 44.1 °F 41.5 °F 39.9 °F 85% 29.81 in 2.0 mi SE 4.6 mph - 0.26 in Rain Rain
4:05 PM 44.6 °F 43.1 °F 39.2 °F 81% 29.75 in 1.8 mi ESE 3.5 mph - 0.04 in Rain Heavy Rain
4:15 PM 44.6 °F 42.2 °F 41.0 °F 87% 29.75 in 1.8 mi Variable 4.6 mph - 0.11 in Rain Heavy Rain
4:28 PM 44.6 °F 41.4 °F 41.0 °F 87% 29.74 in 2.5 mi Variable 5.8 mph - 0.17 in Rain Rain
4:56 PM 45.0 °F 42.6 °F 41.0 °F 86% 29.78 in 2.5 mi Variable 4.6 mph - 0.29 in Rain Rain
5:19 PM 44.6 °F 42.2 °F 42.8 °F 93% 29.73 in 1.8 mi Variable 4.6 mph - 0.15 in Rain Heavy Rain
5:30 PM 44.6 °F 41.4 °F 42.8 °F 93% 29.72 in 2.5 mi Variable 5.8 mph - 0.21 in Rain Rain
5:56 PM 45.0 °F 41.2 °F 42.1 °F 90% 29.76 in 2.5 mi Variable 6.9 mph - 0.31 in Rain Heavy Rain
6:30 PM 46.4 °F 42.9 °F 42.8 °F 87% 29.70 in 2.5 mi Variable 6.9 mph - 0.15 in Rain Rain
6:56 PM 46.0 °F 43.9 °F 43.0 °F 89% 29.74 in 3.0 mi Variable 4.6 mph - 0.27 in Rain Rain
7:26 PM 46.4 °F 43.5 °F 44.6 °F 93% 29.68 in 2.5 mi Variable 5.8 mph - 0.07 in Rain Rain
7:33 PM 46.4 °F 41.9 °F 42.8 °F 87% 29.68 in 3.0 mi SE 9.2 mph 17.3 mph 0.09 in Rain Rain
7:56 PM 48.0 °F - 44.1 °F 86% 29.71 in 4.0 mi Variable 6.9 mph - 0.14 in Rain Light Rain
8:29 PM 48.2 °F - 44.6 °F 87% 29.64 in 2.0 mi SE 6.9 mph 18.4 mph 0.08 in Rain Heavy Rain
8:56 PM 48.0 °F - 45.0 °F 89% 29.67 in 2.5 mi Variable 4.6 mph - 0.19 in Rain Rain
9:33 PM 48.2 °F - 44.6 °F 87% 29.61 in 1.8 mi SSE 8.1 mph - 0.23 in Rain Heavy Rain
9:46 PM 48.2 °F - 44.6 °F 87% 29.62 in 2.0 mi Calm Calm - 0.31 in Rain Heavy Rain
9:56 PM 48.9 °F - 45.0 °F 86% 29.66 in 2.0 mi Variable 4.6 mph - 0.37 in Rain Heavy Rain
10:17 PM 48.2 °F - 44.6 °F 87% 29.62 in 3.0 mi Calm Calm - 0.10 in Rain Rain
10:27 PM 48.2 °F - 44.6 °F 87% 29.62 in 2.5 mi Calm Calm - 0.15 in Rain Heavy Rain
10:56 PM 48.0 °F - 45.0 °F 89% 29.67 in 2.5 mi Calm Calm - 0.32 in Rain Rain
11:14 PM 48.2 °F - 44.6 °F 87% 29.63 in 3.0 mi Calm Calm - 0.10 in Rain Heavy Rain
11:31 PM 48.2 °F - 44.6 °F 87% 29.63 in 2.5 mi Calm Calm - 0.21 in Rain Heavy Rain
11:37 PM 48.2 °F - 44.6 °F 87% 29.63 in 3.0 mi Calm Calm - 0.24 in Rain Heavy Rain
11:56 PM 46.9 °F - 45.0 °F 93% 29.70 in 4.0 mi Calm Calm - 0.32 in Rain Rain